Date,TemperatureHighF,TemperatureAvgF,TemperatureLowF,DewpointHighF,DewpointAvgF,DewpointLowF,HumidityHigh,HumidityAvg,HumidityLow,PressureMaxIn,PressureMinIn,WindSpeedMaxMPH,WindSpeedAvgMPH,GustSpeedMaxMPH,PrecipitationSumIn
2013-5-1,69.4,57.4,48.3,49.8,44.4,37.7,84,64,34,30.42,30.27,7,0,0,0.00
2013-5-2,68.5,55.8,46.5,52.2,46.9,42.4,87,73,48,30.43,30.30,4,0,0,0.00
2013-5-3,62.7,53.9,46.0,47.7,44.3,41.7,87,71,50,30.37,30.29,7,1,0,0.00
2013-5-4,68.2,55.4,48.0,48.5,44.8,41.3,86,69,46,30.33,30.17,6,0,0,0.00
2013-5-5,62.9,52.2,45.8,47.7,43.2,39.0,82,72,54,30.24,30.15,8,0,0,0.00
2013-5-6,61.8,54.8,48.4,57.4,50.3,44.0,87,85,81,30.18,30.06,10,0,0,0.00
2013-5-7,61.5,58.8,56.8,55.0,52.4,50.4,83,79,77,30.07,29.93,5,1,0,0.90
2013-5-8,69.3,60.7,56.3,60.5,54.5,50.6,88,80,67,29.99,29.92,3,0,0,0.00
2013-5-9,73.0,61.9,52.0,62.6,55.1,46.5,87,79,60,29.97,29.90,4,0,0,0.00
2013-5-10,81.1,68.7,55.5,64.8,59.0,50.2,87,73,49,30.00,29.85,6,0,0,0.08
2013-5-11,78.8,67.2,62.6,67.6,60.3,56.3,87,79,62,29.92,29.69,10,0,12,0.39
2013-5-12,65.0,59.9,51.2,56.9,42.7,29.9,88,56,30,30.01,29.71,10,1,12,0.03
2013-5-13,60.4,51.9,42.0,36.7,31.1,24.9,80,47,28,30.14,30.01,12,1,16,0.00
2013-5-14,63.4,51.7,37.5,47.8,35.0,28.8,83,56,30,30.19,30.04,8,0,0,0.00
2013-5-15,77.1,65.0,54.8,64.8,55.6,47.5,87,72,57,30.06,29.66,4,0,0,0.00
2013-5-16,84.1,75.1,69.0,64.8,60.7,57.2,70,61,48,29.88,29.71,9,0,0,0.00
2013-5-17,78.8,69.9,58.8,58.5,52.2,42.8,87,56,33,30.14,29.88,5,0,0,0.00
2013-5-18,66.5,62.5,58.7,57.9,55.0,51.1,87,77,63,30.23,30.14,4,0,0,0.00
2013-5-19,71.7,64.2,59.0,66.0,58.7,53.2,87,82,78,30.20,30.08,4,0,0,0.06
2013-5-20,79.3,70.4,65.1,70.7,64.7,58.6,87,82,74,30.11,29.96,3,0,0,0.00
2013-5-21,80.9,71.8,65.7,72.2,65.7,59.2,87,81,73,29.99,29.85,3,0,0,0.00
2013-5-22,82.3,74.3,67.6,73.6,67.9,60.9,87,81,73,29.91,29.82,4,0,0,0.00
2013-5-23,79.1,72.5,65.5,72.1,67.2,61.1,87,84,74,29.89,29.74,5,0,0,0.05
2013-5-24,65.4,57.7,50.4,61.1,49.9,35.7,88,76,57,30.10,29.70,11,1,17,0.10
2013-5-25,65.5,54.9,44.4,40.5,37.2,34.1,71,53,35,30.12,30.04,12,2,15,0.00
2013-5-26,72.3,64.0,53.2,44.7,40.3,37.3,66,43,30,30.18,30.09,8,1,0,0.00
2013-5-27,70.8,62.7,52.5,51.9,45.4,38.5,73,55,33,30.26,30.16,4,0,0,0.00
2013-5-28,76.8,66.3,59.0,67.1,60.3,51.0,87,81,70,30.19,30.05,3,0,0,0.02
2013-5-29,84.7,75.4,66.3,73.2,67.7,61.3,88,78,65,30.10,30.05,3,0,0,0.00
2013-5-30,87.0,77.7,69.3,73.2,68.7,64.2,87,75,58,30.16,30.08,3,0,0,0.00
2013-5-31,86.9,76.6,67.1,72.5,68.6,63.1,88,77,60,30.14,30.01,4,0,0,0.00